TimeAKST,TemperatureF,Dew PointF,Humidity,Sea Level PressureIn,VisibilityMPH,Wind Direction,Wind SpeedMPH,Gust SpeedMPH,PrecipitationIn,Events,Conditions,WindDirDegrees,DateUTC
12:53 AM,-27.0,-34.1,69,30.19,10.0,Calm,Calm,-,N/A,,Clear,0,2012-11-29 09:53:00
1:53 AM,-27.0,-34.1,69,30.17,10.0,Calm,Calm,-,N/A,,Clear,0,2012-11-29 10:53:00
3:53 AM,-29.0,-35.0,73,30.16,10.0,Calm,Calm,-,N/A,,Clear,0,2012-11-29 12:53:00
4:53 AM,-27.9,-35.0,69,30.15,10.0,Calm,Calm,-,N/A,,Clear,0,2012-11-29 13:53:00
5:53 AM,-27.9,-35.0,69,30.15,10.0,Calm,Calm,-,N/A,,Clear,0,2012-11-29 14:53:00
6:53 AM,-27.0,-34.1,69,30.14,10.0,Calm,Calm,-,N/A,,Clear,0,2012-11-29 15:53:00
7:53 AM,-27.9,-34.1,73,30.14,10.0,Calm,Calm,-,N/A,,Clear,0,2012-11-29 16:53:00
8:53 AM,-27.9,-34.1,73,30.13,10.0,Calm,Calm,-,N/A,,Clear,0,2012-11-29 17:53:00
9:53 AM,-27.9,-35.0,69,30.13,10.0,Calm,Calm,-,N/A,,Clear,0,2012-11-29 18:53:00
10:53 AM,-27.4,-32.8,75,30.07,10.0,Calm,Calm,-,N/A,,Clear,0,2012-11-29 19:53:00
11:55 AM,-25.6,-34.6,63,30.08,10.0,Calm,Calm,-,N/A,,Clear,0,2012-11-29 20:55:00
12:53 PM,-25.6,-34.1,64,30.12,10.0,Calm,Calm,-,N/A,,Clear,0,2012-11-29 21:53:00
1:53 PM,-17.0,-23.1,74,30.11,10.0,Calm,Calm,-,N/A,,Clear,0,2012-11-29 22:53:00
2:53 PM,-16.1,-23.1,71,30.11,10.0,Calm,Calm,-,N/A,,Clear,0,2012-11-29 23:53:00
3:53 PM,-18.9,-25.1,74,30.12,10.0,Calm,Calm,-,N/A,,Clear,0,2012-11-30 00:53:00
4:53 PM,-20.9,-27.0,73,30.12,10.0,West,5.8,-,N/A,,Clear,260,2012-11-30 01:53:00
5:53 PM,-22.0,-27.9,74,30.13,10.0,Calm,Calm,-,N/A,,Clear,0,2012-11-30 02:53:00
6:53 PM,-23.1,-29.0,74,30.14,10.0,Calm,Calm,-,N/A,,Clear,0,2012-11-30 03:53:00
7:53 PM,-24.0,-31.0,70,30.14,7.0,Calm,Calm,-,N/A,,Clear,0,2012-11-30 04:53:00
8:53 PM,-24.0,-29.9,74,30.16,6.0,Calm,Calm,-,N/A,,Haze,0,2012-11-30 05:53:00
9:53 PM,-25.1,-32.1,70,30.15,7.0,SE,5.8,-,N/A,,Clear,130,2012-11-30 06:53:00
10:53 PM,-25.1,-32.1,70,30.17,8.0,Calm,Calm,-,N/A,,Clear,0,2012-11-30 07:53:00
11:53 PM,-25.1,-31.0,74,30.16,10.0,Calm,Calm,-,N/A,,Clear,0,2012-11-30 08:53:00